This demonstration page uses our WeatherBlox Daily Observations layout. Learn more.

Left ArrowRight Arrow

39.51506, -84.39828

Hourly Observations for September 11, 2020

Temp ( °F °C ) Dew Point ( °F °C ) Humidity (%) Winds ( mph kmh ) Pressure ( in mb ) Visibility ( mi km ) Precip ( " mm )
12:15 am 00:15 Cloudy 71 21.4 68 19.8 91 91 N 7 11 30.22 1023 10 16.0934 0 0
12:35 am 00:35 Cloudy 71 21.4 67 19.7 90 90 NE 9 15 30.22 1023 10 16.0934 0 0
12:55 am 00:55 Cloudy 70 21.3 67 19.3 88 88 NNE 9 15 30.22 1023 10 16.0934 0 0
1:15 am 01:15 Cloudy 69 20.8 66 19.1 90 90 NNE 10 17 30.23 1024 10 16.0934 0 0
1:35 am 01:35 Partly Cloudy 69 20.6 66 18.8 89 89 NE 8 13 30.23 1024 10 16.0934 0 0
1:55 am 01:55 Partly Cloudy 69 20.3 66 18.7 91 91 NNE 8 13 30.22 1023 10 16.0934 0 0
2:15 am 02:15 Cloudy 69 20.4 66 18.8 91 91 NNE 5 7 30.22 1023 10 16.0934 0 0
2:35 am 02:35 Cloudy 69 20.5 66 18.8 90 90 NNE 6 9 30.22 1023 10 16.0934 0 0
2:55 am 02:55 Cloudy 69 20.4 66 18.7 90 90 N 7 11 30.22 1023 10 16.0934 0 0
3:15 am 03:15 Cloudy 69 20.3 65 18.6 90 90 NNE 9 15 30.22 1023 10 16.0934 0 0
3:35 am 03:35 Cloudy 69 20.3 65 18.6 90 90 NNE 9 15 30.23 1024 10 16.0934 0 0
3:55 am 03:55 Cloudy 68 20 65 18.5 91 91 NNE 10 17 30.23 1024 10 16.0934 0 0
4:15 am 04:15 Cloudy 68 19.9 65 18.3 91 91 NNE 9 15 30.23 1024 10 16.0934 0 0
4:35 am 04:35 Cloudy 67 19.5 65 18.2 92 92 NNE 7 11 30.24 1024 10 16.0934 0 0
4:55 am 04:55 Cloudy 67 19.4 64 17.9 91 91 NE 12 19 30.24 1024 10 16.0934 0 0
5:15 am 05:15 Cloudy 67 19.4 64 17.6 89 89 NE 13 20 30.24 1024 10 16.0934 0 0
5:35 am 05:35 Cloudy 67 19.3 64 17.7 91 91 NNE 10 17 30.24 1024 10 16.0934 0 0
5:55 am 05:55 Cloudy 67 19.2 64 17.5 90 90 NNE 7 11 30.25 1024 10 16.0934 0 0
6:15 am 06:15 Cloudy 67 19.2 64 17.6 91 91 NE 8 13 30.25 1024 10 16.0934 0 0
6:35 am 06:35 Cloudy 67 19.2 64 17.5 90 90 NE 10 17 30.25 1024 10 16.0934 0 0
6:55 am 06:55 Cloudy 67 19.3 63 17.4 89 89 ENE 10 17 30.25 1024 10 16.0934 0 0
7:15 am 07:15 Cloudy 66 19.1 63 17.2 89 89 NE 10 17 30.25 1024 10 16.0934 0 0
7:35 am 07:35 Cloudy 66 19 63 17.2 89 89 NNE 7 11 30.26 1025 10 16.0934 0 0
7:55 am 07:55 Cloudy 66 18.8 63 17.1 90 90 NE 10 17 30.26 1025 10 16.0934 0 0
8:15 am 08:15 Cloudy 66 18.8 63 17 89 89 NE 9 15 30.26 1025 10 16.0934 0 0
8:35 am 08:35 Cloudy 66 18.9 63 17 89 89 ENE 10 17 30.26 1025 10 16.0934 0 0
8:55 am 08:55 Cloudy 66 18.7 62 16.9 89 89 NE 9 15 30.26 1025 10 16.0934 0 0
9:15 am 09:15 Cloudy 65 18.6 62 16.6 88 88 ENE 10 17 30.27 1025 10 16.0934 0 0
9:35 am 09:35 Cloudy 66 18.7 62 16.5 87 87 NE 9 15 30.27 1025 10 16.0934 0 0
9:55 am 09:55 Cloudy 66 19 62 16.5 86 86 ENE 8 13 30.27 1025 10 16.0934 0 0
10:15 am 10:15 Cloudy 67 19.6 62 16.4 82 82 ENE 7 11 30.27 1025 10 16.0934 0 0
10:35 am 10:35 Cloudy 68 20.1 62 16.5 80 80 E 8 13 30.26 1025 10 16.0934 0 0
10:55 am 10:55 Cloudy 69 20.7 62 16.5 77 77 E 6 9 30.26 1025 10 16.0934 0 0
11:15 am 11:15 Cloudy 70 21 62 16.6 76 76 E 10 17 30.26 1025 10 16.0934 0 0
11:35 am 11:35 Cloudy 69 20.8 62 16.6 77 77 ENE 12 19 30.26 1025 10 16.0934 0 0
11:55 am 11:55 Cloudy 70 21 62 16.6 76 76 ENE 9 15 30.26 1025 10 16.0934 0 0
12:15 pm 12:15 Cloudy 69 20.8 62 16.6 77 77 E 9 15 30.26 1025 10 16.0934 0 0
12:35 pm 12:35 Cloudy 70 21 62 16.8 77 77 E 10 17 30.26 1025 10 16.0934 0 0
12:55 pm 12:55 Cloudy 69 20.8 62 16.6 77 77 ENE 12 19 30.26 1025 10 16.0934 0 0
1:15 pm 13:15 Cloudy 69 20.6 62 16.6 78 78 E 8 13 30.26 1025 10 16.0934 0 0
1:35 pm 13:35 Cloudy 70 20.9 62 16.6 77 77 ENE 12 19 30.25 1024 10 16.0934 0 0
1:55 pm 13:55 Cloudy 70 21.2 62 16.7 76 76 E 10 17 30.25 1024 10 16.0934 0 0
2:15 pm 14:15 Cloudy 70 21.1 62 16.8 77 77 E 10 17 30.25 1024 10 16.0934 0 0
2:35 pm 14:35 Cloudy 70 21 62 16.7 77 77 NE 10 17 30.24 1024 10 16.0934 0 0
2:55 pm 14:55 Cloudy 69 20.8 62 16.8 78 78 NE 10 17 30.23 1024 10 16.0934 0 0
3:15 pm 15:15 Cloudy 70 21.1 62 16.9 77 77 ENE 8 13 30.23 1024 10 16.0934 0 0
3:35 pm 15:35 Cloudy 70 21.1 63 17 78 78 ENE 7 11 30.22 1023 10 16.0934 0 0
3:55 pm 15:55 Cloudy 70 21.1 63 17 78 78 NE 7 11 30.21 1023 10 16.0934 0 0
4:55 pm 16:55 Cloudy 70 21.2 63 17.1 78 78 NE 7 11 30.2 1023 10 16.0934 0 0
5:35 pm 17:35 Cloudy 70 21.2 63 17 77 77 ENE 8 13 30.19 1022 10 16.0934 0 0
5:55 pm 17:55 Cloudy 70 21.1 63 17.1 78 78 NE 8 13 30.18 1022 10 16.0934 0 0
6:15 pm 18:15 Cloudy 70 21.3 63 17 77 77 E 7 11 30.18 1022 10 16.0934 0 0
6:35 pm 18:35 Cloudy 70 21.2 63 17.2 78 78 ENE 9 15 30.18 1022 10 16.0934 0 0
6:55 pm 18:55 Cloudy 70 20.9 63 17.1 79 79 NE 7 11 30.17 1022 10 16.0934 0 0
7:15 pm 19:15 Cloudy 69 20.8 63 17 79 79 ENE 8 13 30.17 1022 10 16.0934 0 0
7:35 pm 19:35 Cloudy 69 20.7 63 17 79 79 ENE 7 11 30.17 1022 10 16.0934 0 0
7:55 pm 19:55 Cloudy 69 20.7 63 17 79 79 ENE 8 13 30.17 1022 10 16.0934 0 0
8:15 pm 20:15 Cloudy 69 20.7 62 16.9 79 79 E 8 13 30.17 1022 10 16.0934 0 0
8:35 pm 20:35 Cloudy 69 20.7 63 17 79 79 ENE 6 9 30.17 1022 10 16.0934 0 0
8:55 pm 20:55 Cloudy 69 20.6 63 17 80 80 ENE 10 17 30.17 1022 10 16.0934 0 0
9:15 pm 21:15 Cloudy 69 20.7 62 16.9 79 79 ENE 9 15 30.17 1022 10 16.0934 0 0
9:35 pm 21:35 Cloudy 69 20.6 62 16.9 79 79 E 8 13 30.18 1022 10 16.0934 0 0
9:55 pm 21:55 Cloudy 69 20.6 63 17 80 80 E 7 11 30.18 1022 10 16.0934 0 0
10:15 pm 22:15 Cloudy 69 20.5 63 17 80 80 E 6 9 30.18 1022 10 16.0934 0 0
10:35 pm 22:35 Cloudy 69 20.4 62 16.9 80 80 E 8 13 30.18 1022 10 16.0934 0 0
10:55 pm 22:55 Cloudy 69 20.3 62 16.8 80 80 E 10 17 30.18 1022 10 16.0934 0 0
11:15 pm 23:15 Cloudy 68 20.2 62 16.9 81 81 E 7 11 30.18 1022 10 16.0934 0 0
11:35 pm 23:35 Cloudy 68 20.2 62 16.8 81 81 E 9 15 30.17 1022 10 16.0934 0 0
11:55 pm 23:55 Cloudy 68 20.2 62 16.8 81 81 E 8 13 30.17 1022 10 16.0934 0 0

Powered by AerisWeather